Location: Monrovia
(34.7865°N, 86.7139°W)
Time: 00:30:49
(UTC+00:00)

Meteor 1-14 Rocket - Pass Details

Date: 14 July 2020
Orbit: 835 x 918 km, 81.3° (Epoch: 12 August)

Event Time Altitude Azimuth Distance (km) Brightness Sun altitude
Exits shadow 07:12:46 62° 342° (NNW) 946 4.5 -30.5°
Drops below altitude 10° 07:17:30 10° 5° (N) 2,488 7.5 -30.1°
Sets 07:19:58 0° 7° (N) 3,440 8.4 -29.9°
